Previsão horária em Barninek

Hoje, 23 Julho, Sexta-feira

Tempo Temperatura Precipitação Vento Pressão Humidade
00:00 +15°C° 0 mm 2 m/s 763 mmHg 85%
01:00 +14°C° 0 mm 2 m/s 763 mmHg 87%
02:00 +14°C° 0 mm 2 m/s 763 mmHg 88%
03:00 +14°C° 0 mm 2 m/s 763 mmHg 89%
04:00 +14°C° 0 mm 2 m/s 763 mmHg 89%
05:00 +15°C° 0 mm 2 m/s 763 mmHg 84%
06:00 +17°C° 0 mm 2 m/s 763 mmHg 79%
07:00 +19°C° 0 mm 3 m/s 763 mmHg 74%
08:00 +20°C° 0 mm 3 m/s 763 mmHg 68%
09:00 +21°C° 0 mm 3 m/s 763 mmHg 62%
10:00 +22°C° 0 mm 3 m/s 763 mmHg 56%
11:00 +24°C° 0 mm 3 m/s 762 mmHg 55%
12:00 +24°C° 0 mm 3 m/s 762 mmHg 53%
13:00 +25°C° 0 mm 3 m/s 762 mmHg 51%
14:00 +24°C° 0 mm 3 m/s 762 mmHg 52%
15:00 +24°C° 0 mm 3 m/s 762 mmHg 54%
16:00 +24°C° 0 mm 3 m/s 762 mmHg 55%
17:00 +22°C° 0 mm 3 m/s 762 mmHg 60%
18:00 +21°C° 0 mm 2 m/s 762 mmHg 64%
19:00 +21°C° 0 mm 1 m/s 762 mmHg 69%
20:00 +20°C° 0 mm 1 m/s 762 mmHg 73%
21:00 +18°C° 0 mm 1 m/s 762 mmHg 77%
22:00 +16°C° 0 mm 1 m/s 762 mmHg 81%
23:00 +16°C° 0 mm 1 m/s 762 mmHg 81%

Amanhã, 24 Julho, Sábado

Tempo Temperatura Precipitação Vento Pressão Humidade
00:00 +16°C° 0 mm 1 m/s 762 mmHg 81%
01:00 +15°C° 0 mm 1 m/s 762 mmHg 81%
02:00 +15°C° 0 mm 1 m/s 762 mmHg 82%
03:00 +15°C° 0 mm 2 m/s 762 mmHg 82%
04:00 +15°C° 0 mm 2 m/s 762 mmHg 83%
05:00 +17°C° 0 mm 2 m/s 762 mmHg 76%
06:00 +19°C° 0 mm 2 m/s 762 mmHg 69%
07:00 +21°C° 0 mm 2 m/s 762 mmHg 62%
08:00 +22°C° 0 mm 3 m/s 762 mmHg 57%
09:00 +25°C° 0 mm 3 m/s 762 mmHg 52%
10:00 +26°C° 0 mm 3 m/s 761 mmHg 47%
11:00 +26°C° 0 mm 3 m/s 761 mmHg 49%
12:00 +26°C° 0 mm 3 m/s 761 mmHg 51%
13:00 +26°C° 0 mm 4 m/s 761 mmHg 53%
14:00 +26°C° 0 mm 4 m/s 761 mmHg 54%
15:00 +26°C° 0 mm 5 m/s 761 mmHg 54%
16:00 +26°C° 0 mm 5 m/s 761 mmHg 55%
17:00 +25°C° 0 mm 5 m/s 761 mmHg 58%
18:00 +25°C° 0 mm 5 m/s 761 mmHg 60%
19:00 +23°C° 0 mm 5 m/s 761 mmHg 63%
20:00 +23°C° 0 mm 5 m/s 761 mmHg 63%
21:00 +22°C° 0 mm 4 m/s 761 mmHg 64%
22:00 +22°C° 0 mm 4 m/s 761 mmHg 64%
23:00 +21°C° 0 mm 4 m/s 761 mmHg 69%

Depois de amanhã, 25 Julho, Domingo

Tempo Temperatura Precipitação Vento Pressão Humidade
00:00 +20°C° 0 mm 4 m/s 761 mmHg 73%
01:00 +19°C° 0 mm 4 m/s 761 mmHg 77%
02:00 +19°C° 0 mm 4 m/s 761 mmHg 78%
03:00 +18°C° 0 mm 4 m/s 761 mmHg 79%
04:00 +18°C° 0 mm 4 m/s 761 mmHg 80%
05:00 +20°C° 0 mm 4 m/s 761 mmHg 74%
06:00 +21°C° 0 mm 4 m/s 760 mmHg 68%
07:00 +23°C° 0 mm 4 m/s 760 mmHg 62%
08:00 +25°C° 0 mm 4 m/s 760 mmHg 55%
09:00 +27°C° 0 mm 4 m/s 760 mmHg 48%
10:00 +29°C° 0 mm 4 m/s 760 mmHg 41%
11:00 +29°C° 0 mm 4 m/s 760 mmHg 40%
12:00 +30°C° 0 mm 4 m/s 760 mmHg 39%
13:00 +30°C° 0 mm 4 m/s 759 mmHg 38%
14:00 +30°C° 0 mm 4 m/s 759 mmHg 38%
15:00 +30°C° 0 mm 4 m/s 759 mmHg 39%
16:00 +30°C° 0 mm 4 m/s 759 mmHg 40%
17:00 +29°C° 0.1 mm 4 m/s 759 mmHg 49%
18:00 +27°C° 0.1 mm 5 m/s 759 mmHg 58%
19:00 +25°C° 0.1 mm 5 m/s 759 mmHg 68%
20:00 +23°C° 0.3 mm 4 m/s 759 mmHg 75%
21:00 +21°C° 0.3 mm 4 m/s 760 mmHg 81%
22:00 +20°C° 0.3 mm 3 m/s 760 mmHg 88%
23:00 +20°C° 0 mm 3 m/s 760 mmHg 89%

26 Julho, Segunda-feira

Tempo Temperatura Precipitação Vento Pressão Humidade
00:00 +19°C° 0 mm 3 m/s 760 mmHg 89%
01:00 +19°C° 0 mm 3 m/s 760 mmHg 90%
02:00 +19°C° 0 mm 3 m/s 760 mmHg 89%
03:00 +19°C° 0 mm 3 m/s 760 mmHg 88%
04:00 +19°C° 0 mm 2 m/s 760 mmHg 88%
05:00 +19°C° 0 mm 3 m/s 760 mmHg 87%
06:00 +20°C° 0 mm 4 m/s 760 mmHg 87%
07:00 +20°C° 0 mm 4 m/s 760 mmHg 87%
08:00 +21°C° 0 mm 4 m/s 760 mmHg 81%
09:00 +23°C° 0 mm 4 m/s 759 mmHg 76%
10:00 +25°C° 0 mm 3 m/s 759 mmHg 71%
11:00 +25°C° 0 mm 3 m/s 759 mmHg 69%
12:00 +26°C° 0 mm 3 m/s 759 mmHg 67%
13:00 +26°C° 0 mm 4 m/s 759 mmHg 65%
14:00 +27°C° 0 mm 3 m/s 758 mmHg 62%
15:00 +28°C° 0 mm 3 m/s 758 mmHg 60%
16:00 +29°C° 0 mm 3 m/s 758 mmHg 57%
17:00 +27°C° 0 mm 2 m/s 758 mmHg 62%
18:00 +26°C° 0 mm 2 m/s 757 mmHg 67%
19:00 +25°C° 0 mm 2 m/s 757 mmHg 73%
20:00 +24°C° 0.9 mm 3 m/s 757 mmHg 79%
21:00 +21°C° 0.9 mm 3 m/s 758 mmHg 85%
22:00 +20°C° 0.9 mm 4 m/s 759 mmHg 91%
23:00 +19°C° 0.1 mm 4 m/s 758 mmHg 90%

27 Julho, Terça-feira

Tempo Temperatura Precipitação Vento Pressão Humidade
00:00 +19°C° 0.1 mm 3 m/s 758 mmHg 89%
01:00 +19°C° 0.1 mm 3 m/s 758 mmHg 88%
02:00 +19°C° 0 mm 3 m/s 758 mmHg 88%
03:00 +19°C° 0 mm 3 m/s 758 mmHg 88%
04:00 +19°C° 0 mm 3 m/s 758 mmHg 89%
05:00 +20°C° 0 mm 4 m/s 758 mmHg 86%
06:00 +21°C° 0 mm 4 m/s 758 mmHg 84%
07:00 +21°C° 0 mm 4 m/s 758 mmHg 81%
08:00 +23°C° 0 mm 4 m/s 758 mmHg 74%
09:00 +25°C° 0 mm 4 m/s 759 mmHg 66%
10:00 +27°C° 0 mm 4 m/s 759 mmHg 58%
11:00 +27°C° 0.1 mm 4 m/s 759 mmHg 58%
12:00 +27°C° 0.1 mm 4 m/s 759 mmHg 58%
13:00 +27°C° 0.1 mm 4 m/s 759 mmHg 58%
14:00 +27°C° 0.3 mm 4 m/s 759 mmHg 60%
15:00 +26°C° 0.3 mm 3 m/s 759 mmHg 63%
16:00 +26°C° 0.3 mm 3 m/s 759 mmHg 65%
17:00 +25°C° 0.2 mm 3 m/s 759 mmHg 69%
18:00 +24°C° 0.2 mm 2 m/s 759 mmHg 73%
19:00 +23°C° 0.2 mm 2 m/s 759 mmHg 77%
20:00 +21°C° 0.1 mm 2 m/s 759 mmHg 80%
21:00 +20°C° 0.1 mm 2 m/s 759 mmHg 83%
22:00 +20°C° 0.1 mm 1 m/s 759 mmHg 86%
23:00 +19°C° 0 mm 2 m/s 759 mmHg 87%

28 Julho, Quarta-feira

Tempo Temperatura Precipitação Vento Pressão Humidade
00:00 +19°C° 0 mm 2 m/s 759 mmHg 87%
01:00 +18°C° 0 mm 2 m/s 759 mmHg 88%
02:00 +18°C° 0 mm 3 m/s 759 mmHg 88%
03:00 +18°C° 0 mm 3 m/s 759 mmHg 87%
04:00 +18°C° 0 mm 3 m/s 759 mmHg 86%
05:00 +19°C° 0 mm 4 m/s 759 mmHg 84%
06:00 +20°C° 0 mm 4 m/s 759 mmHg 82%
07:00 +20°C° 0 mm 4 m/s 759 mmHg 80%
08:00 +22°C° 0.1 mm 5 m/s 759 mmHg 74%
09:00 +23°C° 0.1 mm 5 m/s 759 mmHg 67%
10:00 +25°C° 0.1 mm 5 m/s 759 mmHg 61%
11:00 +25°C° 0 mm 5 m/s 759 mmHg 58%
12:00 +26°C° 0 mm 5 m/s 759 mmHg 54%
13:00 +27°C° 0 mm 4 m/s 759 mmHg 51%
14:00 +27°C° 0 mm 4 m/s 759 mmHg 51%
15:00 +27°C° 0 mm 3 m/s 759 mmHg 51%
16:00 +27°C° 0 mm 3 m/s 759 mmHg 51%
17:00 +26°C° 0 mm 3 m/s 759 mmHg 54%
18:00 +25°C° 0 mm 3 m/s 759 mmHg 57%
19:00 +24°C° 0 mm 2 m/s 759 mmHg 60%
20:00 +23°C° 0 mm 2 m/s 759 mmHg 64%
21:00 +22°C° 0 mm 1 m/s 759 mmHg 68%
22:00 +21°C° 0 mm 1 m/s 759 mmHg 73%
23:00 +21°C° 0 mm 1 m/s 759 mmHg 74%
Mostrar mais